| time (UTC) | temp F | wind direction | speed knots | gust knots | rain 1hr in | rain 24hr in | rain mn in | humidity % | barometer mb |
| 20260509153049 | 64 | 92 | 4.3 | 9.6 | 0.00 | 0.00 | 0.00 | 32 | 1019.2 |
| 20260509151617 | 64 | 137 | 4.3 | 8.7 | 0.00 | 0.00 | 0.00 | 32 | 1019.3 |
| 20260509150055 | 63 | 131 | 4.3 | 8.7 | 0.00 | 0.00 | 0.00 | 33 | 1019.3 |
| 20260509144558 | 64 | 134 | 3.5 | 7.8 | 0.00 | 0.00 | 0.00 | 33 | 1019.3 |
| 20260509143049 | 64 | 133 | 2.6 | 6.1 | 0.00 | 0.00 | 0.00 | 33 | 1019.4 |
| 20260509141608 | 65 | 118 | 2.6 | 7.8 | 0.00 | 0.00 | 0.00 | 32 | 1019.5 |
| 20260509140132 | 65 | 106 | 2.6 | 7.8 | 0.00 | 0.00 | 0.00 | 32 | 1019.5 |
| 20260509134620 | 65 | 107 | 1.7 | 5.2 | 0.00 | 0.00 | 0.00 | 32 | 1019.6 |
| 20260509133050 | 65 | 149 | 2.6 | 5.2 | 0.00 | 0.00 | 0.00 | 32 | 1019.7 |
| 20260509131637 | 66 | 141 | 3.5 | 6.1 | 0.00 | 0.00 | 0.00 | 32 | 1019.7 |
| 20260509124549 | 65 | 122 | 1.7 | 4.3 | 0.00 | 0.00 | 0.00 | 32 | 1019.8 |
| 20260509123114 | 66 | 118 | 1.7 | 7.0 | 0.00 | 0.00 | 0.00 | 32 | 1019.7 |
| 20260509121552 | 67 | 146 | 2.6 | 5.2 | 0.00 | 0.00 | 0.00 | 31 | 1019.6 |
| 20260509120058 | 67 | 108 | 2.6 | 6.1 | 0.00 | 0.00 | 0.00 | 31 | 1019.5 |
| 20260509114601 | 67 | 138 | 2.6 | 7.0 | 0.00 | 0.00 | 0.00 | 31 | 1019.2 |
| 20260509113054 | 68 | 122 | 1.7 | 5.2 | 0.00 | 0.00 | 0.00 | 31 | 1019.0 |
| 20260509111549 | 69 | 151 | 4.3 | 10.4 | 0.00 | 0.00 | 0.00 | 30 | 1018.8 |
| 20260509110052 | 68 | 124 | 1.7 | 3.5 | 0.00 | 0.00 | 0.00 | 30 | 1019.0 |
| 20260509104556 | 69 | 135 | 0.9 | 6.1 | 0.00 | 0.00 | 0.00 | 29 | 1019.2 |
| 20260509103047 | 70 | 131 | 0.9 | 2.6 | 0.00 | 0.00 | 0.00 | 29 | 1018.9 |
| 20260509101548 | 71 | 132 | 2.6 | 4.3 | 0.00 | 0.00 | 0.00 | 28 | 1018.6 |
| 20260509100047 | 72 | 145 | 1.7 | 7.0 | 0.00 | 0.00 | 0.00 | 27 | 1018.6 |
| 20260509094547 | 73 | 93 | 5.2 | 10.4 | 0.00 | 0.00 | 0.00 | 26 | 1018.4 |
| 20260509093054 | 73 | 106 | 4.3 | 9.6 | 0.00 | 0.00 | 0.00 | 26 | 1018.3 |
| 20260509091549 | 74 | 86 | 6.1 | 13.9 | 0.00 | 0.00 | 0.00 | 25 | 1018.2 |
| 20260509090101 | 75 | 141 | 4.3 | 12.2 | 0.00 | 0.00 | 0.00 | 25 | 1017.9 |
| 20260509084559 | 76 | 93 | 9.6 | 12.2 | 0.00 | 0.00 | 0.00 | 25 | 1017.8 |
| 20260509083048 | 76 | 137 | 7.0 | 13.9 | 0.00 | 0.00 | 0.00 | 24 | 1017.7 |
| 20260509081551 | 77 | 85 | 5.2 | 13.0 | 0.00 | 0.00 | 0.00 | 24 | 1017.5 |
| 20260509080049 | 77 | 108 | 8.7 | 15.6 | 0.00 | 0.00 | 0.00 | 23 | 1017.4 |
| 20260509074554 | 78 | 93 | 8.7 | 12.2 | 0.00 | 0.00 | 0.00 | 23 | 1017.3 |
| 20260509073051 | 77 | 155 | 7.0 | 11.3 | 0.00 | 0.00 | 0.00 | 23 | 1017.3 |
| 20260509071551 | 78 | 108 | 8.7 | 13.9 | 0.00 | 0.00 | 0.00 | 23 | 1017.4 |
| 20260509070104 | 79 | 90 | 10.4 | 15.6 | 0.00 | 0.00 | 0.00 | 23 | 1017.5 |
| 20260509064549 | 79 | 73 | 9.6 | 14.8 | 0.00 | 0.00 | 0.00 | 22 | 1017.4 |
| 20260509063049 | 78 | 140 | 7.0 | 13.0 | 0.00 | 0.00 | 0.00 | 23 | 1017.3 |
| 20260509061607 | 78 | 106 | 7.0 | 14.8 | 0.00 | 0.00 | 0.00 | 23 | 1017.5 |
| 20260509060052 | 79 | 66 | 7.8 | 15.6 | 0.00 | 0.00 | 0.00 | 23 | 1017.5 |
| 20260509054612 | 78 | 139 | 4.3 | 13.9 | 0.00 | 0.00 | 0.00 | 23 | 1017.6 |
| 20260509053141 | 78 | 140 | 7.8 | 13.0 | 0.00 | 0.00 | 0.00 | 23 | 1017.8 |
| 20260509051555 | 78 | 72 | 6.1 | 16.5 | 0.00 | 0.00 | 0.00 | 24 | 1017.9 |
| 20260509050056 | 77 | 180 | 3.5 | 13.9 | 0.00 | 0.00 | 0.00 | 25 | 1018.0 |
| 20260509044550 | 77 | 135 | 7.0 | 12.2 | 0.00 | 0.00 | 0.00 | 24 | 1018.3 |
| 20260509043051 | 77 | 74 | 7.0 | 18.2 | 0.00 | 0.00 | 0.00 | 25 | 1018.6 |
| 20260509041551 | 76 | 60 | 6.1 | 15.6 | 0.00 | 0.00 | 0.00 | 25 | 1018.8 |
| 20260509040107 | 75 | 112 | 10.4 | 14.8 | 0.00 | 0.00 | 0.00 | 25 | 1019.1 |
| 20260509034609 | 76 | 92 | 9.6 | 18.2 | 0.00 | 0.00 | 0.00 | 25 | 1019.4 |
| 20260509033052 | 76 | 77 | 8.7 | 17.4 | 0.00 | 0.00 | 0.00 | 25 | 1019.6 |
| 20260509031553 | 76 | 66 | 9.6 | 17.4 | 0.00 | 0.00 | 0.00 | 25 | 1019.7 |
| 20260509024552 | 74 | 108 | 13.0 | 16.5 | 0.00 | 0.00 | 0.00 | 25 | 1020.4 |
| 20260509023140 | 73 | 103 | 9.6 | 15.6 | 0.00 | 0.00 | 0.00 | 25 | 1020.8 |
| 20260509021608 | 72 | 83 | 8.7 | 17.4 | 0.00 | 0.00 | 0.00 | 26 | 1021.0 |
| 20260509020050 | 72 | 88 | 10.4 | 17.4 | 0.00 | 0.00 | 0.00 | 26 | 1021.1 |
| 20260509014646 | 71 | 77 | 9.6 | 16.5 | 0.00 | 0.00 | 0.00 | 26 | 1021.2 |
| 20260509013103 | 70 | 100 | 9.6 | 15.6 | 0.00 | 0.00 | 0.00 | 27 | 1021.3 |
| 20260509011605 | 69 | 131 | 9.6 | 18.2 | 0.00 | 0.00 | 0.00 | 28 | 1021.4 |
| 20260509010149 | 68 | 102 | 13.0 | 20.0 | 0.00 | 0.00 | 0.00 | 29 | 1021.4 |
| 20260509004633 | 67 | 79 | 9.6 | 16.5 | 0.00 | 0.00 | 0.00 | 29 | 1021.3 |
| 20260509003111 | 66 | 92 | 12.2 | 18.2 | 0.00 | 0.00 | 0.00 | 31 | 1021.4 |
| 20260509000201 | 64 | 96 | 7.8 | 15.6 | 0.00 | 0.00 | 0.00 | 34 | 1021.4 |